Regional Weather Roundup
Issued by NWS

Home | Current Version | Previous Version | Graphics & Text | Print | Product List | Glossary On
Versions: 1 2 3 4 5 6 7 8 9 10 11 12 13 14 15 16 17 18 19 20 21 22 23 24 25 26 27 28 29 30 31 32 33 34 35 36 37 38 39 40 41 42 43 44 45 46 47 48 49 50
000
ASUS43 KLMK 202310
RWRKY
KENTUCKY REGIONAL WEATHER ROUNDUP
NATIONAL WEATHER SERVICE LOUISVILLE KY
700 PM EDT WED SEP 20 2017

NOTE "FAIR" INDICATES FEW OR NO CLOUDS BELOW 12,000 FEET
WITH NO SIGNIFICANT WEATHER AND/OR OBSTRUCTIONS TO VISIBILITY.

KYZ001>023-026-027-061>063-070>075-210000-
WESTERN AND SOUTH CENTRAL KENTUCKY

CITY           SKY/WX    TMP DP  RH WIND       PRES   REMARKS
PADUCAH        SUNNY     88  69  53 SW5       29.93S HX  92
HENDERSON      PTCLDY    89  71  55 S8        29.95S HX  95
OWENSBORO      CLEAR     88  71  57 S8        29.96R HX  94
HOPKINSVILLE   CLEAR     87  71  58 SW6       29.97R HX  92
BOWLING GREEN  CLEAR     83  73  72 SE6       29.99R
GLASGOW        CLEAR     82  67  60 CALM      30.01R
$$

KYZ024-025-028>034-038-045-046-053-210000-
NORTH CENTRAL KENTUCKY

CITY           SKY/WX    TMP DP  RH WIND       PRES   REMARKS
LOUISVILLE/SDF PTCLDY    86  70  58 S6        29.98R THUNDER HX  90
LOUISVILLE/LOU TSTM      85  73  67 E6        29.99R HX  91
FORT KNOX      PTCLDY    84  71  65 SE3       29.98R
$$

KYZ035>037-039>044-047>052-055>060-089>105-210000-
NORTHEAST KENTUCKY

CITY           SKY/WX    TMP DP  RH WIND       PRES   REMARKS
LEXINGTON      CLEAR     84  67  56 CALM      30.02S
COVINGTON      MOCLDY    81  67  62 W3        30.01S
FRANKFORT      CLEAR     82  68  62 CALM      30.00S
$$

KYZ054-064>069-076>088-106>120-210000-
SOUTHEAST KENTUCKY

CITY           SKY/WX    TMP DP  RH WIND       PRES   REMARKS
JACKSON        CLEAR     80  65  59 CALM      30.05R
LONDON         CLEAR     81  66  60 CALM      30.04R
SOMERSET       CLEAR     81  64  57 CALM      30.04R
MIDDLESBORO    CLEAR     78  68  70 CALM      30.05R
MONTICELLO     CLEAR     79  71  76 W5        30.05R
$$





USA.gov is the U.S. government's official web portal to all federal, state and local government web resources and services.